Home   Weather   Siegen   Past weeks

Flag for Germany Past Weather in Siegen, North Rhine-Westphalia, Germany — Yesterday and Last 2 Weeks

Now
52 °F

Light rain. Broken clouds.


Feels Like: 49 °F
Forecast: 54 / 59 °F
Wind: 8 mph from Northwest

Location: Hessen

Current Time: Jul 24, 2017 at 11:02:09 pm

Latest Report: Jul 24, 2017 at 8:50 pm


Visibility: 5 mi

Pressure: 29.83 "Hg

Humidity: 100%

Dew Point: 52 °F

Location of SiegenLocation

Past Weather in Siegen — Graph

°F

Siegen Temperature Yesterday

Maximum temperature yesterday: 64 °F (at 1:50 pm)
Minimum temperature yesterday: 55 °F (at 7:50 am)
Average temperature yesterday: 60 °F

High & Low Weather Summary for the Past Weeks

 TemperatureHumidityPressure
High82 °F (Jul 19, 2:50 pm)100% (Jul 10, 8:20 am)30.27 "Hg (Jul 10, 8:20 am)
Low48 °F (Jul 13, 7:20 am)51% (Jul 19, 1:50 pm)29.77 "Hg (Jul 12, 2:50 pm)
Average63 °F79%30.02 "Hg
* Reported Jul 9 8:20 pm — Jul 24 8:50 pm, Siegen. Weather by CustomWeather, © 2017

Note: Actual official high and low records may vary slightly from our data, if they occured in-between our weather recording intervals... More about our weather records

Advertising

Siegen Weather History for the Previous 24 Hours

Scroll right to see more
 ConditionsComfort  
Time TempWeatherWind HumidityBarometerVisibility
8:50 pm
Mon, Jul 24
52 °FLight rain. Broken clouds.8 mph100%29.83 "Hg5 mi
8:20 pm52 °FScattered showers. Broken clouds.8 mph100%29.83 "HgN/A
7:50 pm55 °FBroken clouds.12 mph94%29.80 "HgN/A
7:20 pm54 °FBroken clouds.8 mph100%29.80 "HgN/A
6:50 pm54 °FScattered clouds.10 mph94%29.80 "HgN/A
6:20 pm54 °FScattered showers. Broken clouds.10 mph100%29.80 "HgN/A
5:50 pm55 °FScattered showers. Broken clouds.8 mph94%29.80 "HgN/A
5:20 pm57 °FScattered showers. Broken clouds.12 mph77%29.80 "HgN/A
4:50 pm57 °FScattered clouds.12 mph82%29.80 "HgN/A
4:20 pm55 °FScattered showers. Scattered clouds.9 mph94%29.80 "HgN/A
3:50 pm57 °FBroken clouds.12 mph94%29.80 "HgN/A
3:20 pm54 °FSprinkles. Broken clouds.10 mph100%29.80 "Hg6 mi
2:50 pm55 °FBroken clouds.10 mph94%29.80 "HgN/A
2:20 pm55 °FBroken clouds.10 mph88%29.80 "HgN/A
1:50 pm57 °FPartly sunny.9 mph94%29.80 "HgN/A
1:20 pm55 °FBroken clouds.10 mph94%29.80 "HgN/A
12:20 pm54 °FPartly sunny.10 mph100%29.80 "HgN/A
11:50 am54 °FBroken clouds.9 mph100%29.80 "HgN/A
11:20 am52 °FMostly cloudy.10 mph100%29.80 "Hg5 mi
10:50 am52 °FRain. Broken clouds.12 mph100%29.77 "Hg4 mi
10:20 am52 °FRain. Partly sunny.13 mph100%29.77 "Hg3 mi
9:50 am52 °FCool.12 mph100%29.80 "Hg2 mi
9:20 am50 °FRain. Fog.12 mph100%29.80 "Hg1 mi
8:50 am50 °FRain. Fog.10 mph100%29.80 "Hg1 mi
8:20 am52 °FRain. Fog.10 mph100%29.80 "Hg1 mi
7:50 am52 °FFog.8 mph100%29.80 "Hg1 mi
Weather by CustomWeather, © 2017

See weather overviewHow to use our weather pages